ATLAS CENTAUR R/B, 3598

Orbit data source: Space-Track

ATLAS CENTAUR R/B, 3598 is space debris in LEO originally from a launch on Sat, 07 Dec 1968 UTC launched from the Air Force Eastern Test Range (AFETR). Debris objects in space refer to the collection of defunct objects orbiting the Earth. Examples of debris include non-operational satellites, rocket bodies, and fragments generated from explosions, collisions, or faulty payload assembly.

Loading next visibility...
Identifier
3598, 1968-110B
Orbit
LEO
Country
Flag of USUS
Related business
Manufacturer
GD/Convair
Mission
Spacecraft
Bus & Motor
CENTAUR D, Unknown motor
Mass
~1,700 kg wet, ~1,700 kg dry
Launch date (UTC)
1968-12-07 (57 years ago)
Launch vehicle
Unknown
Launch site
Air Force Eastern Test Range (AFETR)
Object type
Payload
Rocket body
Debris
Shape & HBR
Unknown
Radar Cross Section
Large (>1 m²)

Expand to show TLE details & history
Last TLE update: 18 hours ago

TLE from 18 hours ago
0 ATLAS CENTAUR R/B
1  3598U 68110B   26035.57023833  .00000937  00000-0  20429-3 0  9997
2  3598  34.9914 142.5414 0047293 287.0745  72.4772 14.57531785  5219
Epoch: 2026-02-04T13:41Z
TLE epoch observation values (Epoch: 2026-02-04T13:41:08.591Z)
Latitude
-0.00003°
Longitude
162.52063°
Altitude
690.159 km
Speed
7.519 km/s
True Right ascension
09h 30m 09s
True Declination
0° 00' 00"
Sunlit
Object was in full shadow at epoch
Visualization orbit readout
Latitude
Unknown
Longitude
Unknown
Altitude
Unknown
Speed
Unknown
Apparent Right ascension
Unknown
Apparent Declination
Unknown
Sunlit
N/A
Visualization observer readout
Local Sidereal Time
09:34:24
Azimuth
Unknown
Elevation
Unknown
Doppler factor
Unknown
Orbital elements
Apogee altitude
737.808 km
Perigee altitude
670.818 km
Semi-major axis
7,082.45 km
Eccentricity
0.00473
Inclination
34.9914°
RAAN
142.5414°
Arg. of periapsis
287.0745°
True anomaly
72.9949°
Mean anomaly
72.4772°
Eccentric anomaly
72.73596°
Mean motion
3.6414 °/min
Orbital period
98.86 mins
BSTAR
0.00020429
Loading maneuver chart data...
Computing Atmospheric mass density...
Loading historical data...
Loading historical data...
Loading historical data...
Loading historical data...
Loading historical data...
Loading historical data...
Loading historical data...
Other satellites on launch #110 in the year 1968 (1968-12-07 UTC)

Documentation

Showing up to 5 results
|